KUIPER-00136

导读 | 豆包AI

KUIPER-00165是美国亚马逊公司(现已将项目更名为Amazon Leo)旗下低轨卫星互联网星座项目中的一颗卫星,于2025年9月25日发射升空。该卫星属于项目大规模部署阶段发射的卫星,旨在为全球网络覆盖不足地区提供高速低延迟互联网接入,同时可整合AWS云服务,支撑物联网、边缘计算等应用,助力完成3232颗卫星的组网目标。

基本信息
目录编号:
65778
目录名称:
KUIPER-00165
国际标识:
2025-217S
轨道中心:
EARTH
卫星名称:
KUIPER-00165
卫星全名:
KUIPER-00136
卫星状态:
在轨 (已飞行242 天)
发射日期:
2025-09-25 UTC
国别 :
美国 (US)
星等 :
--
轨道信息
数据来源 国际轨道数据 AOE轨道数据
星历时间 2026-05-24T06:52:52+0800
1天前
查看轨道信息
2026-05-24T01:00:00+0800
1天前
查看轨道信息
半长轴 7007.673km 7007.649km
偏心率 0.0001025 0.0000965
轨道倾角 51.902° 51.901°
近地点辐角 91.911° 71.101°
升交点赤经 62.785° 63.869°
平近点角 268.197° 62.687°
近地点 628.817km 628.835km
远地点 630.255km 630.189km
周期 97.302分钟 97.301分钟
每日圈数 14.79933 14.799406
详细信息
使用方式:
暂无
2D轨道图
3D轨道图
轨道高度分析图
轨道倾角分析图
轨道综合分析图
查看轨道综合分析图